Regional Weather Roundup
Issued by NWS

Home | Current Version | Previous Version | Graphics & Text | Print | Product List | Glossary On
Versions: 1 2 3 4 5 6 7 8 9 10 11 12 13 14 15 16 17 18 19 20 21 22 23 24 25 26 27 28 29 30 31 32 33 34 35 36 37 38 39 40 41 42 43 44 45 46 47 48 49 50
000
ASUS45 KCYS 010310
RWRWY

WYOMING REGIONAL WEATHER ROUNDUP
NATIONAL WEATHER SERVICE CHEYENNE WY
900 PM MDT MON AUG 31 2015

NOTE:  "FAIR" INDICATES FEW OR NO CLOUDS BELOW 12,000 FEET
WITH NO SIGNIFICANT WEATHER AND/OR OBSTRUCTIONS TO VISIBILITY.

WYZ001-010400-
YELLOWSTONE NATIONAL PARK

CITY           SKY/WX    TMP DP  RH WIND       PRES   REMARKS
LK YELLOWSTONE   N/A     48  30  49 CALM      30.22S
W YELLOWSTONE  NOT AVBL

$$
WYZ002>013-054>058-071-098>099-010400-
NORTHERN WYOMING

CITY           SKY/WX    TMP DP  RH WIND       PRES   REMARKS
JACKSON        FAIR      61  27  27 SE6       30.12R
CODY           FAIR      73  27  17 W6        29.98R
GREYBULL       FAIR      75  25  15 NW6       29.88R
WORLAND        FAIR      72  33  24 N7        29.90R
SHERIDAN       FAIR      61  46  57 CALM      29.93R
BUFFALO        FAIR      67  43  41 NW9       30.00R
GILLETTE       FAIR      72  51  47 SE9       29.93R
HULETT         FAIR      63  54  72 N5        29.98R
NEWCASTLE      FAIR      70  50  49 E15G21    29.98R

$$
WYZ014>020-022>026-101>103-010400-
CENTRAL WYOMING

CITY           SKY/WX    TMP DP  RH WIND       PRES   REMARKS
BIG PINEY      FAIR      54  24  31 N9        30.18R
PINEDALE       FAIR      52  28  40 W8        30.19R
DUBOIS         FAIR      59  23  25 CALM      30.17R
LANDER         FAIR      71  24  17 SW13      30.01R
RIVERTON       FAIR      72  21  14 NW15      30.02R
CASPER         FAIR      70  40  33 S22       30.02R
DOUGLAS        FAIR      72  41  32 S13       30.00S

$$
WYZ021-027>030-104>119-010400-
SOUTHERN WYOMING

CITY           SKY/WX    TMP DP  RH WIND       PRES   REMARKS
EVANSTON       FAIR      64  30  27 W8        30.19R
KEMMERER       FAIR      61  27  27 W7        30.20S
FORT BRIDGER   CLEAR     66  30  26 W5        30.21R
ROCK SPRINGS   FAIR      64  39  39 SW9       30.16R
DIXON          FAIR      56  47  71 E6        30.23S
RAWLINS        FAIR      61  40  45 S9        30.17S
SARATOGA       FAIR      55  46  71 SE13      30.23S
LARAMIE        FAIR      53  48  83 S14       30.24F
CHEYENNE       FAIR      61  48  62 S3        30.19F
TORRINGTON     FAIR      69  49  48 S12       30.03F
PINE BLUFFS    MOCLDY    66  50  55 NW12G18   30.17R

$$


USA.gov is the U.S. government's official web portal to all federal, state and local government web resources and services.